x

Pembrey Sands Samos (03605) Weather Station

4:00 - Thu 25th Dec 2014 All times are GMT.

  • Wind
    16mph
  • Aire Temp 44°f
  • Sea Pressure 1027mb
  • Pembrey Sands Samos
  • Pembrey Sands Samos

More Historic Weather Station data

Upgrade to MSW Pro to gain access to the past 30 days of data for over 8000 Wavebouys and Weather Stations around the globe.

Join Pro

Comparision Forecast

View Surf forecast
   
jue 12/25 4:00 16
mph
1027mb 44f
3:00 16
mph
1027mb 44f
2:00 14
mph
1027mb 44f
1:00 16
mph
1026mb 45f
12:00 16
mph
1026mb 45f
mié 12/24 11:00 17
mph
1025mb 45f
10:00 16
mph
1025mb 45f
9:00 19
mph
1025mb 46f
8:00 17
mph
1024mb 46f
7:00 22 30 mph 1024mb 46f
6:00 18 29 mph 1023mb 46f
5:00 18
mph
1022mb 45f
4:00 19 30 mph 1022mb 46f
3:00 24 30 mph 1021mb 47f
2:00 22 30 mph 1021mb 48f
1:00 19
mph
1020mb 47f
12:00 18
mph
1020mb 47f
11:00 16
mph
1020mb 46f
10:00 19
mph
1019mb 46f
9:00 17
mph
1018mb 45f
8:00 17
mph
1017mb 45f
7:00 16
mph
1016mb 46f
6:00 14
mph
1016mb 46f
5:00 17
mph
1015mb 46f
4:00 23 31 mph 1014mb 46f
3:00 22
mph
1013mb 49f
2:00 13 29 mph 1012mb 51f
1:00 25 33 mph 1012mb 53f
12:00 30 38 mph 1012mb 53f
mar 12/23 11:00 31 38 mph 1012mb 52f
10:00 30 38 mph 1012mb 52f
9:00 30 39 mph 1012mb 52f
8:00 32 41 mph 1012mb 52f
7:00 33 39 mph 1012mb 51f
6:00 32 45 mph 1013mb 51f
5:00 36 45 mph 1013mb 51f
4:00 32 43 mph 1014mb 52f
3:00 31 41 mph 1014mb 52f
2:00 37 46 mph 1015mb 52f
1:00 39 47 mph 1016mb 51f
12:00 32 39 mph 1016mb 53f
11:00 29 34 mph 1016mb 53f
10:00 29 37 mph 1016mb 52f
9:00 30 40 mph 1017mb 52f
8:00 33 40 mph 1016mb 53f
7:00 26 37 mph 1016mb 53f
6:00 25 46 mph 1017mb 52f
5:00 32 38 mph 1017mb 53f
4:00 32 47 mph 1017mb 52f
3:00 32 41 mph 1018mb 53f
2:00 30 40 mph 1018mb 53f
1:00 31 37 mph 1018mb 53f
12:00 28 34 mph 1018mb 53f
lun 12/22 11:00 30 38 mph 1018mb 53f
10:00 29 36 mph 1018mb 53f
9:00 30 39 mph 1018mb 53f
8:00 28 38 mph 1018mb 53f
7:00 30 40 mph 1018mb 53f
6:00 30 40 mph 1018mb 53f
5:00 32 41 mph 1018mb 53f
4:00 38 44 mph 1017mb 53f
3:00 31 38 mph 1018mb 53f
2:00 30 36 mph 1018mb 53f
1:00 29 34 mph 1018mb 53f
12:00 29 34 mph 1019mb 53f
11:00 26 32 mph 1019mb 53f
10:00 24 32 mph 1019mb 53f
9:00 28 34 mph 1019mb 53f
8:00 28 39 mph 1018mb 53f
7:00 30 38 mph 1018mb 53f
6:00 31 38 mph 1018mb 53f
5:00 32 43 mph 1019mb 53f
4:00 32 39 mph 1019mb 53f
3:00 30 37 mph 1019mb 53f
2:00 33 40 mph 1020mb 52f
1:00 32 45 mph 1020mb 52f
12:00 31 38 mph 1021mb 52f
dom 12/21 11:00 30 37 mph 1021mb 52f
10:00 30 36 mph 1021mb 52f
9:00 28 37 mph 1022mb 52f
8:00 29 39 mph 1022mb 52f
7:00 28 37 mph 1022mb 52f
6:00 29 37 mph 1023mb 52f
5:00 24 33 mph 1023mb 52f
4:00 29 38 mph 1023mb 52f
3:00 31 40 mph 1024mb 52f
2:00 30 40 mph 1024mb 51f
1:00 29 36 mph 1025mb 51f
12:00 29 38 mph 1026mb 51f
11:00 29 38 mph 1027mb 51f
10:00 28 44 mph 1027mb 50f
9:00 31 43 mph 1027mb 49f
8:00 31 39 mph 1027mb 49f
7:00 28 43 mph 1028mb 49f
6:00 26 40 mph 1028mb 49f
5:00 25 37 mph 1028mb 48f